Location: Luz Observatory
(34.5000°N, 117.2833°W)
Time: 06:12:38
(UTC-07:00)

Hubble Space Telescope - Visible Passes

Search period start: 28 June 2016 00:00
Search period end: 08 July 2016 00:00
Orbit: 539 x 543 km, 28.5° (Epoch: 27 June)

Date Brightness Start Highest point End Pass type
(mag) Time Alt. Az. Time Alt. Az. Time Alt. Az.
28 Jun 3.1 21:55:41 10° SSW 21:56:00 11° SSW 21:56:00 11° SSW visible
29 Jun 2.4 21:45:40 10° SW 21:47:42 20° SSW 21:47:42 20° SSW visible
30 Jun 1.8 21:35:44 10° SW 21:39:08 27° S 21:39:08 27° S visible
01 Jul 1.7 21:25:51 10° SW 21:29:28 30° S 21:30:22 27° SSE visible
02 Jul 1.6 21:16:01 10° WSW 21:19:43 32° S 21:21:25 23° SE visible
03 Jul 1.5 21:06:13 10° WSW 21:09:58 34° S 21:12:20 19° ESE visible
03 Jul 3.3 22:47:12 10° WSW 22:47:43 13° WSW 22:47:43 13° WSW visible
04 Jul 1.5 20:56:27 10° WSW 21:00:14 35° S 21:03:08 15° ESE visible
04 Jul 3.0 22:37:33 10° WSW 22:38:31 15° WSW 22:38:31 15° WSW visible
05 Jul 1.6 20:46:41 10° WSW 20:50:29 35° S 20:53:52 12° ESE visible
05 Jul 2.9 22:27:56 10° WSW 22:29:15 17° SW 22:29:15 17° SW visible
06 Jul 1.6 20:36:58 10° WSW 20:40:44 35° S 20:44:31 10° ESE visible
06 Jul 2.8 22:18:22 10° WSW 22:19:57 17° SW 22:19:57 17° SW visible
07 Jul 1.7 20:27:15 10° WSW 20:30:59 33° S 20:34:44 10° ESE visible
07 Jul 2.8 22:08:53 10° WSW 22:10:37 16° SW 22:10:37 16° SW visible
